Location: Gniazdowice
(50.2124°N, 20.2673°E)
Time: 01:49:36
(UTC+00:00)

Cosmos 2184 Rocket - Pass Details

Date: 23 May 2024
Orbit: 959 x 1000 km, 82.9° (Epoch: 18 June)

Event Time Altitude Azimuth Distance (km) Brightness Sun altitude
Exits shadow 01:21:57 - 177° (S) 3,414 6.4 -10.2°
Reaches altitude 10° 01:23:50 10° 175° (S) 2,708 5.9 -10.0°
Maximum altitude 01:29:58 66° 94° (E) 1,063 4.4 -9.4°
Drops below altitude 10° 01:36:12 10° 14° (NNE) 2,755 7.5 -8.7°
Sets 01:38:46 0° 12° (NNE) 3,714 8.2 -8.4°
